Location: Zilina
(0.0000°N, 18.7333°E)
Time: 09:18:43
(UTC+02:00)

Cosmos 2298 Rocket - Pass Details

Date: 19 February 2019
Orbit: 776 x 784 km, 74.0° (Epoch: 22 October)

Event Time Altitude Azimuth Distance (km) Brightness Sun altitude
Rises 18:25:34 0° 360° (N) 3,254 7.1 -6.5°
Reaches altitude 10° 18:28:02 10° 6° (N) 2,329 6.3 -7.1°
Maximum altitude 18:33:04 45° 78° (ENE) 1,060 4.3 -8.4°
Drops below altitude 10° 18:38:07 10° 150° (SSE) 2,336 6.3 -9.6°
Sets 18:40:35 0° 156° (SSE) 3,265 7.1 -10.2°
